1483448400.63,1346,8.81,72444.8,-13.79,-16.69,-16.51,0,*57
1483448401.85,1347,8.81,72444.0,-13.81,-16.75,-16.59,0,*54
1483448403.07,1348,8.81,72440.3,-13.81,-16.79,-16.75,0,*59
1483448404.29,1349,8.81,72444.5,-13.81,-16.75,-16.75,0,*54
1483448405.51,1350,8.81,72446.5,-13.81,-16.75,-16.59,0,*52
1483448406.74,1351,8.81,72438.5,-13.81,-16.59,-16.59,0,*5D
1483448407.96,1352,8.81,72438.8,-13.81,-16.75,-16.59,0,*50
1483448409.18,1353,8.81,72440.5,-13.81,-16.59,-16.55,0,*53
1483448410.39,1354,8.81,72438.5,-13.81,-16.55,-16.41,0,*5D
1483448411.64,1355,8.81,72440.0,-13.81,-16.41,-16.31,0,*5E
1483448412.93,1356,8.81,72434.0,-13.79,-16.27,-16.13,0,*5A
1483448414.14,1357,8.81,72434.5,-13.81,-16.45,-16.41,0,*5F
1483448415.35,1358,8.81,72432.5,-13.81,-16.55,-16.45,0,*55
1483448416.61,1359,8.81,72430.8,-13.81,-16.31,-16.31,0,*55
1483448417.84,1360,8.81,72434.3,-13.81,-16.31,-16.45,0,*5C
1483448419.06,1361,8.81,72430.8,-13.81,-16.45,-16.55,0,*5F
1483448420.3,1362,8.81,72434.0,-13.79,-16.41,-16.55,0,*5F
1483448421.56,1363,8.81,72434.3,-13.79,-16.51,-16.55,0,*5F
1483448422.83,1364,8.81,72434.0,-13.79,-16.55,-16.51,0,*58
1483448424.09,1365,8.81,72434.8,-13.79,-16.51,-16.55,0,*59
1483448425.35,1366,8.81,72436.3,-13.79,-16.59,-16.69,0,*5D
1483448426.6,1367,8.81,72436.3,-13.81,-16.55,-16.65,0,*5B
1483448427.84,1368,8.81,72432.3,-13.79,-16.55,-16.59,0,*5C
1483448429.08,1369,8.81,72432.8,-13.79,-16.59,-16.89,0,*5C
1483448430.34,1370,8.81,72438.5,-13.79,-16.97,-17.17,0,*50
1483448431.6,1371,8.81,72436.0,-13.79,-16.97,-17.17,0,*51
1483448432.89,1372,8.81,72432.0,-13.79,-17.17,-17.25,0,*5A
1483448434.14,1373,8.81,72432.8,-13.79,-17.31,-17.25,0,*5F
1483448435.44,1374,8.81,72424.8,-13.79,-17.45,-17.41,0,*59
1483448436.7,1375,8.81,72426.8,-13.79,-17.41,-17.31,0,*5B
1483448437.99,1376,8.81,72420.3,-13.79,-17.55,-17.59,0,*53
1483448439.22,1377,8.81,72420.5,-13.81,-17.83,-17.93,0,*58
1483448440.51,1378,8.81,72412.3,-13.79,-17.55,-17.63,0,*54
1483448441.73,1379,8.81,72424.3,-13.81,-17.35,-17.35,0,*57
1483448442.96,1380,8.81,72432.8,-13.79,-17.31,-17.31,0,*56
1483448444.26,1381,8.81,72446.3,-13.79,-17.41,-17.41,0,*57
1483448445.5,1382,8.81,72458.0,-13.81,-17.35,-17.17,0,*53
1483448446.74,1383,8.81,72468.3,-13.81,-17.45,-17.31,0,*51
1483448447.96,1384,8.81,72462.8,-13.81,-17.35,-17.35,0,*55
1483448449.23,1385,8.81,72460.5,-13.81,-17.21,-17.07,0,*50
1483448450.5,1386,8.81,72460.3,-13.81,-17.17,-17.17,0,*57
1483448451.8,1387,8.81,72452.0,-13.83,-17.21,-17.07,0,*50
1483448453.04,1388,8.81,72438.8,-13.85,-17.21,-16.97,0,*51
1483448454.27,1389,8.81,72446.5,-13.83,-17.31,-17.31,0,*5A
1483448455.53,1390,8.81,72440.0,-13.83,-17.59,-17.49,0,*53
1483448456.8,1391,8.81,72410.5,-13.85,-18.01,-17.97,0,*55
1483448458.03,1392,8.81,72376.5,-13.85,-17.69,-17.55,0,*59
1483448459.3,1393,8.81,72386.0,-13.85,-17.55,-17.41,0,*52
1483448460.57,1394,8.81,72404.5,-13.87,-17.41,-17.35,0,*51
1483448461.79,1395,8.81,72398.8,-13.89,-17.87,-17.87,0,*5D
1483448463.07,1396,8.81,72394.8,-13.89,-17.45,-17.41,0,*5A
1483448464.33,1397,8.81,72404.8,-13.89,-17.11,-17.11,0,*5F
1483448465.62,1398,8.81,72426.0,-13.91,-17.17,-17.17,0,*59
1483448466.92,1399,8.81,72406.5,-13.91,-17.41,-17.25,0,*5A
1483448468.18,1400,8.81,72390.8,-13.93,-17.41,-17.41,0,*5D
1483448469.44,1401,8.81,72384.5,-13.93,-17.25,-17.17,0,*5D
1483448470.71,1402,8.81,72368.5,-13.93,-17.25,-17.25,0,*5F
1483448471.97,1403,8.81,72356.0,-13.93,-17.17,-17.03,0,*5B
1483448473.24,1404,8.81,72340.5,-13.93,-17.17,-17.03,0,*5C
1483448474.51,1405,8.81,72360.8,-13.93,-17.17,-17.11,0,*5E
1483448475.77,1406,8.81,72366.0,-13.93,-17.03,-17.03,0,*5B
1483448477.04,1407,8.81,72366.3,-13.93,-17.03,-17.03,0,*5A
1483448478.33,1408,8.81,72366.8,-13.95,-17.45,-17.45,0,*53
1483448479.6,1409,8.81,72352.3,-13.95,-17.35,-17.45,0,*55
1483448480.83,1410,8.81,72348.8,-13.95,-16.93,-16.89,0,*51
1483448482.09,1411,8.81,72342.8,-13.95,-16.69,-16.55,0,*54
1483448483.34,1412,8.81,72348.8,-13.95,-16.59,-16.59,0,*58
1483448484.58,1413,8.81,72360.8,-13.95,-16.59,-16.59,0,*59
1483448485.79,1414,8.81,72378.8,-13.99,-16.45,-16.37,0,*57
1483448487.05,1415,8.81,72388.5,-13.99,-16.31,-16.31,0,*53
1483448488.31,1416,8.81,72400.5,-13.95,-16.27,-16.41,0,*5C
1483448489.6,1417,8.81,72396.5,-13.95,-16.31,-16.31,0,*5D
1483448490.86,1418,8.81,72406.8,-13.99,-16.65,-16.65,0,*5E
1483448492.07,1419,8.81,72408.3,-13.99,-16.89,-16.89,0,*5F
1483448493.29,1420,8.81,72418.3,-13.99,-16.79,-16.75,0,*59
1483448494.56,1421,8.81,72424.5,-13.95,-16.41,-16.27,0,*58
1483448495.8,1422,8.81,72428.5,-13.99,-16.45,-16.51,0,*52
1483448497.04,1423,8.81,72440.3,-13.95,-16.75,-16.59,0,*54
1483448498.31,1424,8.81,72452.0,-13.95,-16.41,-16.27,0,*5D
1483448499.6,1425,8.81,72456.5,-13.95,-16.27,-16.13,0,*5B
1483448500.87,1426,8.81,72466.3,-13.99,-16.17,-16.17,0,*53
1483448502.11,1427,8.81,72464.0,-13.93,-16.13,-15.95,0,*55
1483448503.35,1428,8.81,72464.0,-13.93,-16.13,-15.99,0,*56
1483448504.55,1429,8.81,72466.3,-13.93,-15.99,-15.99,0,*56
1483448505.82,1430,8.81,72464.3,-13.93,-16.13,-16.13,0,*5E
1483448507.09,1431,8.81,72470.0,-13.93,-16.13,-16.09,0,*54
1483448508.32,1432,8.81,72466.5,-13.91,-15.99,-15.99,0,*5E
1483448509.59,1433,8.81,72462.5,-13.91,-16.09,-15.99,0,*55
1483448510.89,1434,8.81,72462.3,-13.91,-16.13,-16.09,0,*53
1483448512.16,1435,8.81,72454.5,-13.91,-16.09,-15.95,0,*5F
1483448513.43,1436,8.81,72462.0,-13.91,-16.09,-15.99,0,*50
1483448514.69,1437,8.81,72460.3,-13.91,-16.09,-15.99,0,*51
1483448515.99,1438,8.81,72452.3,-13.91,-16.13,-16.09,0,*5F
1483448517.25,1439,8.81,72452.5,-13.87,-15.95,-15.89,0,*5F
1483448518.5,1440,8.81,72448.3,-13.89,-15.95,-15.81,0,*57
1483448519.77,1441,8.81,72446.0,-13.89,-15.81,-15.85,0,*57
1483448521.01,1442,8.81,72446.3,-13.87,-15.75,-15.75,0,*5E
1483448522.27,1443,8.81,72444.5,-13.87,-15.81,-15.71,0,*50
1483448523.54,1444,8.81,72444.3,-13.87,-15.95,-15.81,0,*5D
1483448524.78,1445,8.81,72442.0,-13.87,-16.03,-15.95,0,*55
1483448526.01,1446,8.81,72436.5,-13.87,-16.45,-16.37,0,*5F
1483448527.3,1447,8.81,72440.3,-13.87,-16.31,-16.17,0,*5F
1483448528.57,1448,8.81,72444.8,-13.87,-16.09,-16.03,0,*5E
1483448529.83,1449,8.81,72454.5,-13.87,-15.81,-15.75,0,*5E
1483448531.1,1450,8.81,72452.0,-13.87,-15.95,-15.89,0,*50
1483448532.37,1451,8.81,72458.0,-13.85,-16.17,-16.09,0,*51
1483448533.65,1452,8.81,72458.3,-13.87,-16.23,-16.23,0,*5F
1483448534.9,1453,8.81,72442.8,-13.85,-16.09,-15.95,0,*5A
1483448536.14,1454,8.81,72432.8,-13.85,-15.95,-15.89,0,*56
1483448537.38,1455,8.81,72432.8,-13.85,-15.95,-15.81,0,*5F
1483448538.65,1456,8.81,72426.0,-13.83,-16.13,-16.03,0,*5E
1483448539.89,1457,8.81,72422.5,-13.85,-16.09,-16.03,0,*52
1483448541.16,1458,8.81,72428.3,-13.85,-16.17,-16.09,0,*58
1483448542.4,1459,8.81,72430.5,-13.85,-16.03,-15.89,0,*57
1483448543.67,1460,8.81,72428.3,-13.85,-15.89,-15.81,0,*54
1483448544.96,1461,8.81,72418.3,-13.83,-16.17,-16.13,0,*5F
1483448546.26,1462,8.81,72402.0,-13.83,-16.17,-16.17,0,*58
1483448547.52,1463,8.81,72410.0,-13.85,-16.31,-16.31,0,*5F
1483448548.78,1464,8.81,72412.5,-13.85,-16.23,-16.23,0,*58
1483448550.04,1465,8.81,72418.8,-13.85,-16.51,-16.51,0,*59
1483448551.25,1466,8.81,72422.5,-13.85,-16.45,-16.45,0,*5A
1483448552.49,1467,8.81,72438.0,-13.85,-16.09,-16.03,0,*51
1483448553.76,1468,8.81,72432.8,-13.85,-16.17,-16.17,0,*54
1483448555.03,1469,8.81,72428.3,-13.85,-16.17,-16.17,0,*55
1483448556.29,1470,8.81,72438.8,-13.85,-16.17,-16.23,0,*5A
1483448557.56,1471,8.81,72428.0,-13.85,-16.31,-16.17,0,*58
1483448558.77,1472,8.81,72442.5,-13.85,-16.37,-16.37,0,*5F
1483448559.98,1473,8.81,72438.0,-13.85,-16.45,-16.45,0,*5E
1483448561.24,1474,8.81,72432.3,-13.85,-16.31,-16.17,0,*5D
1483448562.46,1475,8.81,72424.3,-13.85,-16.03,-16.03,0,*58
1483448563.72,1476,8.81,72414.3,-13.85,-16.23,-16.23,0,*5B
1483448564.98,1477,8.81,72418.8,-13.83,-15.99,-15.89,0,*5D
1483448566.25,1478,8.81,72414.3,-13.85,-16.17,-16.17,0,*55
1483448567.49,1479,8.81,72404.3,-13.85,-15.89,-15.95,0,*59
1483448568.72,1480,8.81,72412.0,-13.83,-15.99,-15.99,0,*54
1483448569.98,1481,8.81,72402.5,-13.85,-16.23,-16.23,0,*53
1483448571.25,1482,8.81,72394.5,-13.85,-16.23,-16.17,0,*57
1483448572.55,1483,8.81,72382.0,-13.83,-16.13,-16.17,0,*53
1483448573.81,1484,8.81,72394.5,-13.85,-16.23,-16.23,0,*56
1483448575.02,1485,8.81,72430.5,-13.85,-16.37,-16.37,0,*57
1483448576.25,1486,8.81,72446.5,-13.85,-16.51,-16.45,0,*51
1483448577.47,1487,8.81,72450.5,-13.85,-16.45,-16.37,0,*50
1483448578.68,1488,8.81,72442.8,-13.85,-16.37,-16.37,0,*5A
1483448579.91,1489,8.81,72450.5,-13.87,-16.45,-16.37,0,*5C
1483448581.17,1490,8.81,72464.0,-13.85,-16.51,-16.51,0,*53
1483448582.46,1491,8.81,72456.3,-13.87,-16.51,-16.51,0,*50
1483448583.72,1492,8.81,72442.0,-13.87,-16.59,-16.65,0,*5C
1483448585.01,1493,8.81,72450.0,-13.87,-16.65,-16.69,0,*5E
1483448586.23,1494,8.81,72444.5,-13.89,-16.83,-16.89,0,*51
1483448587.49,1495,8.81,72442.8,-13.87,-16.69,-16.83,0,*50
1483448588.74,1496,8.81,72436.3,-13.87,-16.59,-16.59,0,*57
1483448590.01,1497,8.81,72434.5,-13.89,-16.69,-16.69,0,*58
1483448591.25,1498,8.81,72432.8,-13.89,-16.69,-16.75,0,*5A
1483448592.5,1499,8.81,72432.3,-13.89,-17.03,-16.97,0,*5A
1483448593.71,1500,8.81,72432.3,-13.89,-16.97,-16.97,0,*57
1483448594.98,1501,8.81,72436.8,-13.89,-16.69,-16.69,0,*56
1483448596.25,1502,8.81,72440.0,-13.89,-16.65,-16.65,0,*55
1483448597.52,1503,8.81,72448.0,-13.91,-16.55,-16.51,0,*59
1483448598.78,1504,8.81,72440.3,-13.91,-16.65,-16.55,0,*59
1483448600.05,1505,8.81,72444.5,-13.91,-16.65,-16.55,0,*58
1483448601.32,1506,8.81,72444.5,-13.91,-16.51,-16.41,0,*59
1483448602.6,1507,8.81,72450.8,-13.91,-16.51,-16.51,0,*59
1483448603.87,1508,8.81,72450.0,-13.91,-16.55,-16.65,0,*55
1483448605.13,1509,8.81,72444.5,-13.93,-16.65,-16.65,0,*55
1483448606.37,1510,8.81,72444.0,-13.93,-16.51,-16.55,0,*59
1483448607.63,1511,8.81,72440.0,-13.91,-16.37,-16.27,0,*5F
1483448608.84,1512,8.81,72436.5,-13.93,-15.95,-15.99,0,*53
1483448610.13,1513,8.81,72432.3,-13.91,-16.23,-16.13,0,*5F
1483448611.42,1514,8.81,72432.5,-13.91,-16.23,-16.23,0,*5B
1483448612.63,1515,8.81,72426.0,-13.93,-16.41,-16.41,0,*58
1483448613.88,1516,8.81,72406.5,-13.91,-16.55,-16.55,0,*59
1483448615.09,1517,8.81,72396.5,-13.93,-16.41,-16.37,0,*5B
1483448616.31,1518,8.81,72386.8,-13.93,-16.55,-16.55,0,*55
1483448617.53,1519,8.81,72382.0,-13.93,-16.83,-16.83,0,*54
1483448618.82,1520,8.81,72378.8,-13.95,-17.17,-17.03,0,*5D
1483448620.11,1521,8.81,72366.0,-13.95,-17.03,-17.03,0,*59
1483448621.33,1522,8.81,72364.8,-13.99,-17.35,-17.35,0,*56
1483448622.61,1523,8.81,72372.0,-13.95,-17.45,-17.35,0,*5C
1483448623.87,1524,8.81,72370.8,-14.01,-17.35,-17.41,0,*55
1483448625.13,1525,8.81,72340.5,-13.99,-17.11,-17.21,0,*52
1483448626.4,1526,8.81,72348.8,-14.03,-17.17,-17.17,0,*56
1483448627.69,1527,8.81,72358.8,-14.01,-17.41,-17.45,0,*51
1483448628.93,1528,8.81,72352.0,-14.01,-17.49,-17.35,0,*51
1483448630.16,1529,8.81,72350.3,-14.03,-17.31,-17.25,0,*5C
1483448631.45,1530,8.81,72358.0,-14.05,-17.25,-17.11,0,*50
1483448632.69,1531,8.81,72360.5,-14.05,-16.83,-16.83,0,*56
1483448633.98,1532,8.81,72376.5,-14.05,-17.03,-17.03,0,*55
1483448635.27,1533,8.81,72380.3,-14.05,-17.11,-17.03,0,*57
1483448636.53,1534,8.88,72388.5,-14.05,-17.03,-16.89,0,*50
1483448637.8,1535,8.81,72390.8,-14.05,-16.79,-16.69,0,*53
1483448639.06,1536,8.81,72394.3,-14.05,-16.51,-16.37,0,*51
1483448640.32,1537,8.81,72400.8,-14.05,-16.37,-16.23,0,*55
1483448641.58,1538,8.81,72410.0,-14.05,-16.23,-15.99,0,*5D
1483448642.84,1539,8.81,72416.0,-14.05,-16.23,-15.99,0,*5C
1483448644.11,1540,8.81,72422.0,-14.05,-16.13,-15.99,0,*51
1483448645.4,1541,8.81,72424.5,-14.05,-16.09,-15.89,0,*5A
1483448646.66,1542,8.81,72426.8,-14.05,-15.99,-15.89,0,*53
1483448647.93,1543,8.81,72438.3,-14.05,-15.95,-15.81,0,*56
1483448649.17,1544,8.81,72442.8,-14.03,-15.95,-15.81,0,*57
1483448650.4,1545,8.81,72448.8,-14.03,-15.81,-15.75,0,*58
1483448651.69,1546,8.81,72458.0,-14.01,-15.85,-15.85,0,*52
1483448652.95,1547,8.81,72468.3,-14.03,-15.81,-15.81,0,*51
1483448654.24,1548,8.81,72472.5,-14.01,-15.85,-15.89,0,*50
1483448655.5,1549,8.81,72476.3,-14.03,-16.69,-16.69,0,*5F
1483448656.75,1550,8.81,72478.3,-14.03,-16.23,-16.23,0,*57
1483448658.01,1551,8.81,72468.8,-14.03,-16.51,-16.51,0,*56
1483448659.3,1552,8.81,72468.5,-14.01,-16.09,-16.17,0,*58
1483448660.57,1553,8.81,72474.5,-14.01,-16.03,-16.17,0,*53
1483448661.86,1554,8.81,72480.0,-14.01,-16.17,-16.17,0,*51
1483448663.1,1555,8.81,72488.8,-14.01,-15.95,-16.03,0,*5C
1483448664.39,1556,8.81,72492.3,-14.01,-16.09,-16.23,0,*5B
1483448665.68,1557,8.81,72488.5,-14.01,-16.17,-16.17,0,*52
1483448666.92,1558,8.81,72488.5,-14.01,-15.95,-16.03,0,*51
1483448668.2,1559,8.81,72486.5,-14.01,-16.51,-16.51,0,*5C
1483448669.44,1560,8.81,72468.3,-14.01,-16.37,-16.45,0,*53
1483448670.67,1561,8.81,72464.8,-13.99,-16.51,-16.45,0,*54
1483448671.89,1562,8.81,72448.8,-13.99,-16.79,-16.75,0,*5E
1483448673.1,1563,8.81,72436.3,-13.99,-16.89,-16.89,0,*53
1483448674.3,1564,8.81,72430.5,-14.03,-16.93,-16.83,0,*51
1483448675.6,1565,8.81,72364.8,-14.01,-17.41,-17.55,0,*56
1483448676.86,1566,8.81,72352.3,-14.03,-17.03,-17.11,0,*51
1483448678.07,1567,8.81,72356.0,-14.03,-16.79,-16.83,0,*56
1483448679.33,1568,8.81,72370.5,-14.01,-16.97,-17.11,0,*51
1483448680.59,1569,8.81,72388.0,-14.03,-17.17,-17.17,0,*5D
1483448681.85,1570,8.81,72386.5,-14.03,-16.69,-16.65,0,*59
1483448683.1,1571,8.81,72400.5,-14.03,-16.51,-16.51,0,*54
1483448684.34,1572,8.81,72410.8,-14.01,-16.45,-16.37,0,*50
1483448685.54,1573,8.81,72414.0,-14.03,-16.37,-16.37,0,*56
1483448686.83,1574,8.81,72438.3,-14.01,-16.17,-16.23,0,*54
1483448688.07,1575,8.81,72426.8,-14.03,-16.55,-16.69,0,*5F
1483448689.3,1576,8.81,72432.5,-14.01,-16.45,-16.45,0,*51
1483448690.57,1577,8.81,72428.3,-14.01,-16.65,-16.59,0,*5F
1483448691.81,1578,8.81,72426.3,-14.01,-16.75,-16.79,0,*53
1483448693.05,1579,8.81,72418.8,-14.03,-16.97,-17.03,0,*50
1483448694.31,1580,8.81,72398.5,-14.03,-17.41,-17.41,0,*5A
1483448695.52,1581,8.81,72394.8,-14.03,-17.83,-17.87,0,*5F
1483448696.78,1582,8.81,72402.3,-14.03,-18.01,-18.01,0,*58
1483448698.04,1583,8.81,72418.8,-14.05,-17.69,-17.55,0,*50
1483448699.34,1584,8.81,72426.0,-14.05,-17.45,-17.45,0,*58
1483448700.63,1585,8.81,72442.3,-14.05,-17.03,-17.03,0,*59
1483448701.92,1586,8.81,72438.8,-14.05,-17.45,-17.41,0,*5E
1483448703.17,1587,8.81,72462.3,-14.09,-17.35,-17.35,0,*57
1483448704.43,1588,8.81,72438.0,-14.09,-17.31,-17.21,0,*59
1483448705.73,1589,8.81,72422.0,-14.09,-17.17,-17.07,0,*58
1483448706.99,1590,8.81,72420.8,-14.09,-16.69,-16.55,0,*5E
1483448708.23,1591,8.81,72430.3,-14.09,-16.55,-16.45,0,*51
1483448709.51,1592,8.81,72436.0,-14.09,-16.31,-16.27,0,*54
1483448710.8,1593,8.81,72428.5,-14.05,-16.23,-16.23,0,*5E
1483448712.09,1594,8.81,72422.0,-14.05,-16.27,-16.27,0,*59
1483448713.32,1595,8.81,72416.5,-14.05,-16.37,-16.37,0,*58
1483448714.62,1596,8.81,72418.8,-14.05,-16.09,-16.09,0,*5B
1483448715.89,1597,8.81,72426.3,-14.05,-16.37,-16.23,0,*5F
1483448717.18,1598,8.81,72440.3,-14.05,-16.09,-16.09,0,*55
1483448718.42,1599,8.81,72448.5,-14.05,-15.99,-15.95,0,*58
1483448719.71,1600,8.81,72458.8,-14.05,-16.13,-16.13,0,*57
1483448721.0,1601,8.81,72448.5,-14.05,-16.09,-16.23,0,*5E
1483448722.26,1602,8.81,72452.5,-14.03,-16.51,-16.51,0,*53
1483448723.52,1603,8.81,72458.5,-14.03,-16.65,-16.69,0,*5E
1483448724.81,1604,8.81,72430.0,-14.01,-17.11,-17.07,0,*50
1483448726.04,1605,8.81,72422.8,-14.03,-17.45,-17.31,0,*57
1483448727.34,1606,8.81,72438.3,-14.05,-17.25,-17.41,0,*53
1483448728.63,1607,8.81,72422.0,-14.05,-17.45,-17.55,0,*51
1483448729.92,1608,8.81,72424.8,-14.05,-17.41,-17.41,0,*5F
1483448731.22,1609,8.81,72442.5,-14.05,-17.41,-17.41,0,*5E
1483448732.47,1610,8.81,72436.5,-14.05,-17.31,-17.25,0,*53
1483448733.76,1611,8.81,72446.8,-14.05,-17.11,-17.03,0,*54
1483448735.02,1612,8.81,72462.8,-14.05,-17.03,-16.97,0,*58
1483448736.29,1613,8.81,72446.0,-14.05,-17.03,-16.97,0,*59
1483448737.52,1614,8.81,72438.8,-14.09,-17.31,-17.31,0,*5E
1483448738.79,1615,8.81,72446.0,-14.09,-17.45,-17.35,0,*58
1483448740.06,1616,8.81,72444.0,-14.11,-17.45,-17.45,0,*55
1483448741.32,1617,8.81,72436.8,-14.11,-17.17,-17.17,0,*54
1483448742.59,1618,8.81,72432.8,-14.11,-17.07,-17.03,0,*5F
1483448743.8,1619,8.81,72428.3,-14.11,-16.83,-16.75,0,*53
1483448745.04,1620,8.81,72424.8,-14.11,-17.03,-16.89,0,*53
1483448746.3,1621,8.81,72408.3,-14.11,-17.21,-17.17,0,*54
1483448747.57,1622,8.81,72402.5,-14.11,-17.21,-17.07,0,*56
1483448748.84,1623,8.81,72374.0,-14.11,-17.21,-17.07,0,*57
1483448750.13,1624,8.81,72384.0,-14.13,-17.21,-17.21,0,*56
1483448751.42,1625,8.81,72398.5,-14.13,-17.21,-17.21,0,*57
1483448752.65,1626,8.81,72394.0,-14.13,-16.97,-16.93,0,*50
1483448753.91,1627,8.81,72380.8,-14.13,-16.59,-16.51,0,*5D
1483448755.12,1628,8.81,72384.8,-14.11,-16.59,-16.45,0,*55
1483448756.36,1629,8.81,72380.5,-14.13,-16.89,-16.75,0,*58
1483448757.62,1630,8.81,72408.5,-14.13,-16.51,-16.37,0,*53
1483448758.84,1631,8.81,72410.5,-14.11,-16.59,-16.41,0,*59
1483448760.12,1632,8.81,72420.0,-14.13,-16.31,-16.23,0,*52
1483448761.41,1633,8.81,72432.5,-14.13,-16.51,-16.51,0,*50
1483448762.62,1634,8.81,72418.3,-14.11,-16.75,-16.75,0,*55
1483448763.86,1635,8.81,72414.0,-14.13,-16.93,-16.93,0,*56
1483448765.1,1636,8.81,72422.8,-14.13,-16.79,-16.75,0,*59
1483448766.4,1637,8.81,72414.0,-14.13,-17.07,-17.07,0,*54
1483448767.69,1638,8.81,72416.0,-14.13,-17.11,-17.11,0,*5B
1483448768.9,1639,8.81,72394.8,-14.15,-16.97,-16.97,0,*5C
1483448770.14,1640,8.81,72382.0,-14.15,-16.79,-16.65,0,*5F
1483448771.43,1641,8.81,72370.0,-14.13,-16.65,-16.51,0,*52
1483448772.69,1642,8.81,72358.5,-14.15,-16.51,-16.51,0,*50
1483448773.95,1643,8.81,72358.0,-14.15,-16.31,-16.23,0,*52
1483448775.19,1644,8.81,72356.5,-14.15,-16.09,-16.03,0,*5C
1483448776.49,1645,8.81,72366.5,-14.13,-16.09,-16.09,0,*51
1483448777.78,1646,8.81,72372.8,-14.13,-16.23,-16.17,0,*55
1483448779.06,1647,8.81,72382.8,-14.13,-16.31,-16.31,0,*53
1483448780.35,1648,8.81,72388.3,-14.13,-16.31,-16.23,0,*5F
1483448781.56,1649,8.81,72392.8,-14.11,-16.03,-16.03,0,*5F
1483448782.77,1650,8.81,72396.3,-14.11,-16.03,-16.03,0,*57
1483448784.03,1651,8.81,72392.8,-14.13,-16.09,-16.03,0,*5E
1483448785.3,1652,8.88,72388.5,-14.11,-16.17,-16.17,0,*55
1483448786.54,1653,8.81,72384.3,-14.11,-16.41,-16.31,0,*53
1483448787.76,1654,8.81,72386.5,-14.11,-16.41,-16.41,0,*53
1483448789.02,1655,8.81,72388.5,-14.11,-16.27,-16.27,0,*52
1483448790.22,1656,8.81,72384.8,-14.11,-15.99,-15.99,0,*51
1483448791.43,1657,8.81,72400.5,-14.11,-16.45,-16.55,0,*51
1483448792.67,1658,8.81,72416.5,-14.09,-16.55,-16.55,0,*56
1483448793.89,1659,8.81,72424.5,-14.11,-16.55,-16.59,0,*52
1483448795.13,1660,8.81,72438.3,-14.11,-16.41,-16.27,0,*54
1483448796.34,1661,8.81,72436.3,-14.11,-15.99,-16.03,0,*55
1483448797.6,1662,8.81,72440.5,-14.11,-15.85,-15.85,0,*56
1483448798.82,1663,8.81,72448.3,-14.11,-15.95,-15.95,0,*57
1483448800.05,1664,8.81,72442.3,-14.09,-16.03,-15.99,0,*59
1483448801.31,1665,8.81,72442.0,-14.09,-16.03,-16.13,0,*59
1483448802.53,1666,8.81,72440.3,-14.11,-15.95,-15.95,0,*52
1483448803.79,1667,8.81,72434.0,-14.09,-16.03,-16.13,0,*5B
1483448805.06,1668,8.81,72434.5,-14.09,-16.03,-16.17,0,*50
1483448806.29,1669,8.81,72432.0,-14.09,-16.03,-16.03,0,*54
1483448807.52,1670,8.81,72444.5,-14.09,-15.99,-16.03,0,*5C
1483448808.79,1671,8.81,72448.3,-14.05,-16.27,-16.41,0,*51
1483448810.05,1672,8.81,72468.8,-14.05,-16.69,-16.79,0,*53
1483448811.32,1673,8.81,72460.0,-14.05,-16.69,-16.83,0,*57
1483448812.56,1674,8.81,72452.5,-14.05,-16.41,-16.55,0,*51
1483448813.85,1675,8.81,72446.8,-14.05,-16.23,-16.23,0,*55
1483448815.14,1676,8.81,72460.8,-14.09,-16.27,-16.27,0,*5A
1483448816.42,1677,8.81,72454.8,-14.05,-16.51,-16.51,0,*57
1483448817.68,1678,8.81,72460.0,-14.05,-16.37,-16.27,0,*59
1483448818.97,1679,8.81,72458.5,-14.05,-16.27,-16.27,0,*59
1483448820.26,1680,8.81,72460.0,-14.05,-16.23,-16.23,0,*5F
1483448821.55,1681,8.81,72462.8,-14.05,-16.13,-16.23,0,*5D
1483448822.79,1682,8.81,72452.3,-14.05,-16.37,-16.41,0,*5C
1483448824.03,1683,8.81,72450.5,-14.05,-16.37,-16.41,0,*5D
1483448825.29,1684,8.81,72458.0,-14.05,-16.51,-16.41,0,*5A
1483448826.53,1685,8.81,72470.0,-14.05,-16.41,-16.37,0,*5B
1483448827.78,1686,8.81,72474.8,-14.05,-16.55,-16.55,0,*59
1483448829.04,1687,8.81,72458.8,-14.05,-16.69,-16.83,0,*5C
1483448830.28,1688,8.81,72436.0,-14.05,-16.97,-16.89,0,*58
1483448831.54,1689,8.81,72428.5,-14.05,-17.11,-16.97,0,*59
1483448832.78,1690,8.81,72428.5,-14.05,-16.83,-16.97,0,*5B
1483448834.02,1691,8.81,72430.5,-14.05,-16.79,-16.79,0,*5F
1483448835.31,1692,8.81,72428.3,-14.05,-16.69,-16.69,0,*5C
1483448836.55,1693,8.81,72422.8,-14.05,-16.55,-16.55,0,*5D
1483448837.82,1694,8.81,72426.3,-14.05,-16.41,-16.23,0,*5E
1483448839.08,1695,8.81,72422.8,-14.05,-16.51,-16.41,0,*5A
1483448840.32,1696,8.81,72418.3,-14.05,-16.37,-16.37,0,*58
1483448841.58,1697,8.81,72414.5,-14.05,-16.51,-16.37,0,*59
1483448842.83,1698,8.81,72414.3,-14.03,-16.27,-16.23,0,*54
1483448844.13,1699,8.81,72408.3,-14.01,-16.23,-16.09,0,*5B
1483448845.39,1700,8.88,72406.3,-14.01,-16.37,-16.17,0,*50
1483448846.68,1701,8.81,72388.3,-14.01,-16.51,-16.23,0,*56
1483448847.94,1702,8.81,72382.5,-14.01,-16.37,-16.23,0,*55
1483448849.23,1703,8.81,72376.3,-14.01,-16.51,-16.23,0,*54
1483448850.46,1704,8.81,72376.8,-14.03,-16.37,-16.23,0,*51
1483448851.72,1705,8.81,72382.0,-14.03,-16.23,-16.13,0,*56
1483448852.98,1706,8.81,72382.3,-14.01,-16.37,-16.23,0,*51
1483448854.24,1707,8.81,72384.5,-14.01,-16.37,-16.23,0,*50
1483448855.5,1708,8.81,72390.8,-14.01,-16.37,-16.31,0,*5C
1483448856.74,1709,8.81,72390.3,-14.01,-16.59,-16.37,0,*53
1483448858.03,1710,8.81,72406.5,-14.01,-16.23,-16.09,0,*5B
1483448859.33,1711,8.81,72408.0,-14.01,-16.17,-16.09,0,*5D
1483448860.61,1712,8.81,72412.0,-14.01,-16.31,-16.23,0,*52
1483448861.88,1713,8.81,72418.3,-14.01,-16.37,-16.17,0,*52
1483448863.14,1714,8.81,72422.5,-14.03,-16.13,-16.23,0,*56
1483448864.37,1715,8.81,72424.0,-14.01,-16.03,-16.03,0,*56
1483448865.64,1716,8.81,72428.0,-14.01,-16.09,-16.03,0,*5F
1483448866.88,1717,8.81,72424.0,-14.01,-16.03,-15.95,0,*58
1483448868.17,1718,8.81,72424.8,-13.95,-15.89,-15.85,0,*5D
1483448869.44,1719,8.81,72426.3,-13.95,-15.85,-15.75,0,*5F
1483448870.66,1720,8.81,72428.8,-13.99,-15.75,-15.75,0,*56
1483448871.95,1721,8.81,72424.8,-13.95,-15.81,-15.81,0,*5B
1483448873.21,1722,8.81,72420.0,-13.95,-15.85,-15.71,0,*53
1483448874.48,1723,8.81,72420.8,-13.95,-15.85,-15.75,0,*56
1483448875.77,1724,8.81,72420.8,-13.95,-15.81,-15.81,0,*5E
1483448877.06,1725,8.81,72418.0,-13.95,-15.89,-15.85,0,*53
1483448878.35,1726,8.81,72420.5,-13.95,-15.85,-15.85,0,*5C
1483448879.64,1727,8.88,72424.8,-13.95,-15.81,-15.81,0,*5D
1483448880.91,1728,8.81,72424.0,-13.91,-16.13,-15.99,0,*57
1483448882.18,1729,8.81,72422.8,-13.93,-15.85,-15.81,0,*51
1483448883.41,1730,8.81,72430.3,-13.93,-15.81,-15.75,0,*56
1483448884.65,1731,8.81,72438.3,-13.93,-15.99,-15.85,0,*51
1483448885.89,1732,8.81,72436.3,-13.93,-16.09,-15.99,0,*55
1483448887.16,1733,8.81,72440.0,-13.91,-16.09,-15.95,0,*5A
1483448888.37,1734,8.81,72430.0,-13.93,-15.99,-15.95,0,*55
1483448889.63,1735,8.81,72438.0,-13.93,-16.27,-16.23,0,*5C
1483448890.84,1736,8.81,72440.0,-13.93,-16.55,-16.55,0,*5B
1483448892.08,1737,8.81,72442.0,-13.93,-16.55,-16.51,0,*5E
1483448893.37,1738,8.81,72438.8,-13.91,-16.27,-16.23,0,*53
1483448894.63,1739,8.81,72440.3,-13.93,-16.51,-16.51,0,*54
1483448895.87,1740,8.81,72436.8,-13.95,-16.59,-16.55,0,*50
1483448897.11,1741,8.81,72442.5,-13.95,-16.55,-16.55,0,*5D
1483448898.38,1742,8.81,72444.5,-13.99,-16.23,-16.17,0,*55
1483448899.64,1743,8.81,72446.0,-13.95,-16.03,-15.89,0,*5E
1483448900.88,1744,8.81,72442.5,-13.95,-15.71,-15.71,0,*58
1483448902.16,1745,8.81,72442.3,-13.95,-16.31,-16.27,0,*5E
1483448903.45,1746,8.81,72434.3,-13.95,-16.31,-16.27,0,*5D
1483448904.66,1747,8.81,72436.3,-13.99,-16.55,-16.55,0,*57
1483448905.88,1748,8.81,72446.5,-13.99,-16.41,-16.45,0,*5C
1483448907.16,1749,8.81,72442.5,-13.95,-16.27,-16.27,0,*55
1483448908.38,1750,8.81,72444.8,-13.99,-16.03,-16.03,0,*51
1483448909.61,1751,8.81,72448.3,-13.95,-16.03,-16.03,0,*5C
1483448910.91,1752,8.81,72448.0,-13.95,-16.13,-16.17,0,*5B